Location: Observatoire
(46.1952°N, 5.3391°E)
Time: 11:34:26
(UTC+01:00)

Explorer 7 - Visible Passes

Search period start: 16 February 2026 00:00
Search period end: 26 February 2026 00:00
Orbit: 431 x 545 km, 50.2° (Epoch: 15 February)

Date Brightness Start Highest point End Pass type
(mag) Time Alt. Az. Time Alt. Az. Time Alt. Az.
16 Feb 6.9 20:00:32 10° WNW 20:04:14 51° NNE 20:04:19 51° NNE visible
17 Feb 7.0 19:34:56 10° WNW 19:38:35 50° N 19:39:51 34° ENE visible
17 Feb 9.5 21:13:21 10° WNW 21:14:13 16° WNW 21:14:13 16° WNW visible
18 Feb 7.0 19:09:17 10° WNW 19:12:55 49° N 19:15:24 19° E visible
18 Feb 8.5 20:47:42 10° WNW 20:49:46 30° W 20:49:46 30° W visible
19 Feb 7.0 18:43:37 10° WNW 18:47:13 48° N 18:50:58 10° E visible
19 Feb 7.1 20:22:02 10° WNW 20:25:21 58° WSW 20:25:21 58° WSW visible
20 Feb 6.8 19:56:20 10° WNW 20:00:04 67° SSW 20:00:58 48° SSE visible
21 Feb 6.8 19:30:36 10° WNW 19:34:19 69° SSW 19:36:39 22° SE visible
21 Feb 9.5 21:10:01 10° W 21:11:02 13° WSW 21:11:02 13° WSW visible
22 Feb 6.8 19:04:50 10° WNW 19:08:32 71° SSW 19:12:22 10° ESE visible
22 Feb 9.1 20:44:11 10° W 20:46:31 16° SW 20:46:48 15° SW visible
23 Feb 9.2 20:18:19 10° W 20:20:43 16° SW 20:22:42 12° S visible
24 Feb 9.2 19:52:26 10° W 19:54:53 17° SW 19:57:23 10° S visible
25 Feb 9.3 19:26:32 10° W 19:29:02 17° SW 19:31:35 10° S visible
